Terminal Aerodrome Forecast
Issued by NWS Wichita, KS

Home | Current Version | Previous Version | Text Only | Print | Product List | Glossary Off
Versions: 1 2 3 4 5 6 7 8 9 10 11 12 13 14 15 16 17 18

000
FTUS43 KICT 180520
TAFICT
TAF
KICT 180520Z 1806/1906 18008KT P6SM OVC250
     FM181000 18008KT P6SM VCTS OVC080CB
     FM181300 19010KT P6SM SCT025 BKN080
     FM182100 24010KT P6SM SCT070
     FM190000 VRB05KT P6SM SCT070 BKN250
     FM190400 32010KT P6SM SCT250=

USA.gov is the U.S. government's official web portal to all federal, state and local government web resources and services.